Wetbulb
39.93 37.54 35.83 39.40 41.42 41.63 39.45 38.06 37.85 40.85 44.43 46.85 45.85 46.42 48.48 51.58 54.29 54.38 54.85 55.69 56.32 56.92 58.54 58.76 57.88 58.12 57.33 58.67 59.02 58.35 58.18 58.87 61.02 59.93 57.85 57.11 53.22 50.96 49.67 49.20 48.83 48.28 48.69 48.55
36.53 35.04 39.57 42.92 42.84 40.80 38.60 37.18 37.28 39.73 42.63 45.80 46.08 44.64 48.60 50.97 52.35 54.40 54.85 55.93 55.95 57.69 58.65 58.80 58.21 57.96 56.88 57.01 58.05 58.11 58.73 60.00 62.19 61.86 60.38 56.22 50.95 48.20 47.33 46.92 46.14 46.00 45.72 45.85
34.19 37.72 42.52 41.53 40.40 38.30 36.84 34.79 37.18 37.12 41.77 46.33 45.03 42.72 45.05 49.20 51.53 54.63 55.27 56.77 56.81 56.60 57.71 59.03 58.44 57.69 56.84 56.45 57.23 58.45 59.53 60.90 62.46 59.46 53.87 49.88 48.28 47.30 45.76 44.63 43.73 43.38 43.35 43.27
36.48 40.69 40.93 40.17 38.83 38.62 33.96 39.54 38.54 37.48 37.59 37.00 44.59 34.72 42.68 46.75 47.65 52.02 54.14 54.70 55.72 56.34 56.87 58.90 58.02 57.65 57.68 57.62 59.05 59.44 60.38 60.86 59.23 56.95 52.99 51.01 49.20 45.91 45.00 43.10 42.68 42.17 42.14 40.95
35.22 38.16 37.94 37.99 38.24 39.76 37.40 42.07 39.41 37.72 36.16 38.09 41.32 36.34 41.67 46.07 45.24 48.30 53.32 54.18 55.32 56.61 56.74 57.84 55.40 52.23 51.88 53.93 53.27 53.21 55.36 56.91 57.41 56.22 54.54 50.33 45.75 43.62 42.69 41.76 40.70 40.37 40.33 38.99
37.52 42.73 41.41 40.95 42.52 42.51 43.62 40.09 39.17 36.40 33.94 30.57 38.71 37.91 39.00 42.22 45.57 46.78 52.68 54.66 55.59 56.49 56.23 52.83 51.16 50.51 48.48 48.19 48.33 49.56 51.29 51.21 54.43 52.23 50.05 47.59 43.94 42.07 40.99 40.53 39.49 38.85 37.25 36.80
33.82 37.11 40.70 43.05 40.47 42.09 40.18 35.81 29.70 28.31 28.93 29.34 36.92 35.53 39.13 45.63 48.00 48.30 50.93 54.23 55.85 55.76 51.70 49.44 49.11 48.50 46.97 46.67 46.80 46.90 47.83 45.59 47.46 47.98 47.09 45.64 43.83 42.91 41.17 39.72 38.19 37.04 36.01 35.45
26.42 28.53 37.61 42.36 41.36 38.32 38.29 35.35 29.01 22.90 27.54 30.21 37.57 31.72 38.71 44.11 47.74 48.28 52.83 54.35 56.07 52.50 51.59 50.34 49.14 47.64 46.43 45.52 43.50 42.44 42.85 41.67 43.00 43.52 43.58 44.17 43.77 41.87 40.40 39.88 38.52 37.58 36.14 36.97
28.66 29.69 40.81 41.84 43.03 41.44 35.99 36.02 38.99 32.85 31.51 30.17 32.73 35.63 42.94 45.21 48.25 49.14 51.53 52.88 50.32 49.39 48.88 47.95 46.29 45.69 44.73 43.75 44.04 42.86 41.48 41.02 42.52 42.89 42.78 42.27 40.87 39.74 38.11 37.58 37.77 37.16 36.87 36.76
34.65 26.94 37.49 40.31 40.90 43.29 40.88 41.58 34.08 33.57 26.27 25.12 32.50 33.02 36.37 40.49 44.85 46.30 47.15 46.93 46.36 45.56 43.71 43.52 43.49 42.79 41.36 41.54 42.27 42.94 43.63 42.06 40.83 40.47 39.20 38.30 37.87 37.81 37.49 37.29 36.53 36.43 35.86 34.74
34.67 32.62 31.58 37.49 33.83 33.93 38.20 37.00 37.37 37.01 33.91 29.60 28.65 31.36 36.27 37.23 45.35 44.97 44.98 43.69 43.89 43.81 43.37 42.63 41.84 40.84 40.27 39.93 39.75 38.82 38.30 37.62 37.36 37.91 37.87 37.72 37.95 38.16 38.15 37.41 35.74 33.84 32.82 32.07
34.49 32.70 27.05 31.10 36.68 39.54 37.56 37.40 38.03 30.99 30.40 30.97 31.46 33.45 38.37 38.65 44.09 45.43 43.32 42.38 42.66 43.04 42.56 41.86 40.64 39.21 38.63 38.23 37.96 37.82 37.62 37.43 38.12 38.67 38.72 38.39 38.28 37.64 35.07 33.38 32.42 31.71 30.93 31.23
32.72 29.97 22.10 26.92 34.06 38.11 34.56 37.14 39.25 37.05 33.48 28.75 28.77 33.74 41.17 42.08 42.09 41.53 39.26 40.11 40.61 40.53 40.10 39.47 38.50 38.13 38.15 37.95 37.80 37.77 38.23 38.38 39.20 39.52 38.58 36.51 34.25 32.77 31.62 31.22 30.93 30.51 30.04 29.49
36.93 31.78 29.09 26.63 30.72 34.29 33.77 35.59 38.68 36.81 29.97 30.15 31.70 31.43 37.47 39.15 39.31 39.09 38.58 38.23 37.89 37.95 38.18 37.89 37.37 37.97 37.95 38.06 38.14 38.54 39.09 39.07 37.87 36.44 34.41 33.05 32.05 31.57 30.89 30.54 30.01 29.16 28.74 28.21
32.90 25.97 30.00 30.97 33.27 33.60 34.06 35.70 36.96 36.82 36.67 30.83 33.10 31.48 37.52 39.20 39.23 38.85 38.57 37.84 37.63 37.34 37.18 37.71 37.83 38.15 38.59 39.26 39.77 39.83 38.96 37.70 36.17 34.02 32.57 31.90 31.38 30.63 29.69 28.66 28.40 28.26 27.92 27.06
31.67 24.79 30.96 26.31 32.75 32.65 29.89 33.88 36.75 37.77 37.88 35.77 33.45 32.12 36.02 40.18 40.25 38.57 38.48 38.34 37.67 37.62 38.14 38.46 39.13 40.36 40.68 40.56 40.40 39.34 36.82 34.48 33.75 32.47 31.60 30.99 29.62 28.40 27.98 27.51 26.97 26.63 26.20 25.75
27.91 28.27 26.56 20.66 28.86 29.27 21.40 28.81 35.32 37.45 38.66 38.15 31.91 34.18 38.78 37.99 39.34 39.00 38.84 39.54 39.31 39.82 39.50 39.95 40.91 41.44 41.45 41.15 39.82 36.36 34.29 32.88 31.84 31.01 30.30 29.11 28.16 27.42 26.93 26.57 25.93 25.41 24.61 24.36
25.82 27.15 27.14 23.88 26.82 15.54 27.57 31.67 36.26 37.88 39.07 40.47 35.61 35.12 37.02 38.88 38.57 40.57 40.97 40.45 40.74 40.88 40.65 41.39 42.06 42.21 41.09 39.59 37.12 35.04 33.17 31.84 30.52 30.05 29.21 28.32 27.31 26.72 25.97 25.08 24.66 24.30 23.78 23.23
28.76 27.36 26.02 22.87 23.01 24.71 27.30 32.49 36.59 36.60 37.19 40.24 37.70 35.80 35.81 36.63 37.18 35.47 38.13 41.43 41.48 42.19 42.69 43.25 43.62 42.10 39.79 39.84 37.86 35.11 32.66 31.51 30.37 29.24 28.33 27.47 26.73 25.89 24.91 24.10 23.37 22.91 22.52 22.32
27.27 28.93 25.13 25.43 17.76 14.95 25.12 30.58 35.93 39.31 31.64 33.70 36.67 36.08 34.82 34.55 31.62 32.51 35.95 37.60 39.04 41.04 41.77 42.03 42.27 41.41 40.24 36.99 35.04 33.33 32.08 30.91 30.33 30.32 29.37 27.09 26.24 25.48 24.22 24.03 23.01 22.74 22.30 22.97
22.66 24.33 20.46 23.11 23.85 22.70 27.22 29.60 34.35 30.36 30.44 31.25 34.12 37.41 35.80 35.21 32.64 33.56 33.64 33.10 32.56 33.01 34.01 34.80 36.23 37.11 34.98 33.10 33.02 32.52 31.68 31.13 31.68 29.84 27.96 25.34 24.91 24.31 24.16 23.05 21.65 20.52 20.40 21.23
18.58 17.05 21.48 23.28 20.63 18.12 27.43 33.37 32.56 29.87 31.35 32.37 34.46 35.71 33.45 32.03 32.40 31.72 31.04 30.24 30.60 30.43 30.96 31.41 31.72 30.71 29.37 29.89 30.16 29.75 28.88 27.61 25.23 24.13 23.83 23.04 21.73 22.54 22.28 19.51 18.90 17.69 17.95 16.85
23.73 25.14 22.13 26.14 24.50 26.66 28.29 30.27 30.61 30.50 30.86 32.22 33.18 33.74 33.58 31.81 30.63 30.71 29.90 29.60 29.24 29.52 29.46 29.57 29.90 29.39 28.28 24.56 26.06 25.19 25.02 22.86 19.96 18.48 18.16 16.39 16.52 19.86 20.25 18.46 17.04 15.35 15.10 16.44
26.01 26.24 21.68 22.68 25.08 26.12 28.87 30.03 29.39 29.29 30.30 31.26 32.27 32.58 32.52 31.17 30.63 29.78 29.79 29.69 29.53 29.20 28.57 27.45 24.91 23.72 23.49 22.02 23.56 24.43 22.44 20.15 17.34 17.93 17.44 15.86 15.46 15.58 14.93 18.87 18.47 17.36 15.45 15.67
24.99 26.04 22.73 22.20 25.19 26.51 28.67 28.14 28.61 28.90 29.43 29.71 29.56 30.56 30.71 30.54 29.71 29.28 28.92 28.73 28.53 28.23 24.41 21.76 21.13 21.11 20.75 19.24 19.63 16.90 18.21 15.35 16.59 15.00 14.81 15.31 16.01 14.72 15.99 17.16 18.04 18.30 19.05 19.14
25.12 23.05 22.09 21.36 24.90 26.39 26.93 27.46 28.33 27.95 27.81 28.38 28.96 28.19 28.19 29.34 28.91 27.79 26.57 25.49 24.89 22.34 19.84 19.88 18.55 17.69 18.08 15.77 16.13 15.12 11.18 12.68 13.51 16.19 16.27 16.12 15.90 14.34 15.50 15.40 17.05 23.07 25.41 25.88
MSLP
1013.20 1012.72 1010.89 1010.59 1010.73 1011.70 1012.38 1012.51 1012.13 1011.27 1010.86 1010.31 1009.59 1010.13 1009.25 1008.59 1009.50 1010.05 1010.61 1010.93 1010.76 1011.03 1011.46 1012.35 1012.89 1013.65 1014.43 1015.03 1015.55 1016.13 1016.75 1017.08 1017.59 1018.29 1019.04 1019.62 1020.43 1021.31 1021.66 1021.72 1021.97 1022.14 1022.26 1022.34
1013.75 1011.05 1010.70 1010.77 1011.09 1011.89 1012.49 1012.51 1012.29 1011.75 1010.50 1009.79 1009.43 1009.37 1009.17 1008.79 1008.82 1009.30 1009.85 1010.16 1010.38 1010.87 1011.22 1011.93 1012.50 1013.29 1014.12 1014.76 1015.25 1015.82 1016.40 1016.88 1017.48 1018.01 1018.71 1019.39 1020.54 1021.59 1021.99 1022.28 1022.51 1022.64 1022.71 1022.77
1012.41 1010.75 1010.13 1010.15 1010.77 1011.77 1012.12 1011.72 1012.43 1011.90 1010.10 1009.59 1009.29 1009.12 1008.61 1008.76 1008.70 1009.30 1009.52 1009.26 1009.72 1010.13 1010.84 1011.64 1012.29 1013.06 1013.83 1014.60 1015.04 1015.62 1016.16 1016.64 1017.29 1017.87 1018.77 1019.88 1020.94 1021.75 1022.30 1022.91 1023.17 1023.36 1023.28 1023.42
1011.74 1010.88 1010.09 1010.17 1010.63 1010.93 1011.36 1011.60 1012.32 1011.61 1010.99 1008.61 1008.57 1007.78 1008.18 1008.39 1008.35 1008.64 1009.30 1009.58 1009.86 1010.33 1010.95 1011.56 1012.45 1013.16 1013.79 1014.41 1015.04 1015.51 1016.09 1016.68 1017.39 1017.83 1018.62 1019.37 1020.22 1021.44 1022.44 1023.10 1023.61 1023.85 1023.88 1024.04
1010.93 1010.15 1009.90 1009.60 1009.70 1010.35 1010.28 1010.93 1011.23 1010.89 1010.61 1009.70 1007.92 1008.14 1006.95 1007.92 1007.80 1008.12 1008.75 1009.28 1009.76 1010.26 1010.53 1011.82 1012.77 1013.45 1014.35 1014.66 1015.28 1015.84 1016.28 1016.97 1017.53 1017.93 1018.36 1019.37 1020.59 1021.57 1022.61 1023.42 1023.87 1024.20 1024.43 1024.50
1011.15 1010.20 1009.81 1009.34 1009.25 1009.86 1010.23 1010.43 1010.69 1011.47 1010.53 1009.69 1007.51 1007.15 1006.74 1006.42 1006.58 1007.92 1008.33 1008.87 1009.50 1010.29 1011.05 1012.63 1013.56 1014.01 1014.94 1015.38 1015.72 1016.44 1016.90 1017.43 1017.89 1018.33 1018.99 1019.46 1020.38 1021.52 1022.62 1023.56 1024.11 1024.49 1024.58 1024.82
1011.84 1010.20 1009.50 1009.11 1008.71 1009.73 1009.40 1010.51 1011.25 1011.10 1009.92 1008.95 1008.11 1007.94 1007.00 1005.77 1006.15 1007.13 1007.88 1008.58 1009.41 1010.37 1011.50 1012.63 1014.14 1014.80 1015.50 1016.11 1016.45 1017.02 1017.44 1018.18 1018.50 1018.90 1019.64 1020.28 1020.83 1021.63 1022.43 1023.33 1024.06 1024.55 1024.74 1025.06
1011.41 1010.59 1009.84 1009.00 1008.67 1008.79 1009.54 1010.72 1010.91 1010.43 1009.33 1008.89 1008.45 1008.20 1007.50 1006.77 1006.69 1007.36 1007.51 1008.54 1009.65 1011.16 1012.16 1012.64 1013.96 1015.37 1016.21 1017.00 1017.36 1017.58 1018.23 1018.90 1019.27 1019.61 1020.37 1020.97 1021.45 1022.11 1023.01 1023.48 1024.05 1024.49 1024.65 1025.12
1011.69 1010.54 1009.90 1009.22 1009.27 1009.14 1009.81 1009.74 1009.50 1009.54 1009.28 1009.08 1008.95 1008.75 1007.89 1007.72 1007.81 1007.81 1008.35 1009.42 1010.56 1011.80 1012.92 1013.99 1014.99 1015.76 1016.18 1017.18 1018.13 1018.24 1018.75 1019.33 1019.88 1020.42 1020.88 1021.41 1021.84 1022.42 1023.29 1023.96 1024.47 1024.61 1024.80 1025.22
1012.18 1011.40 1010.70 1010.14 1009.50 1009.49 1009.23 1009.11 1009.44 1009.31 1009.26 1009.17 1008.98 1008.78 1008.53 1008.52 1008.75 1008.95 1009.59 1010.58 1011.69 1012.91 1014.05 1015.02 1016.19 1016.89 1016.92 1017.64 1018.40 1018.81 1019.20 1019.66 1020.31 1021.01 1021.76 1022.27 1022.76 1022.90 1024.00 1024.33 1025.15 1025.29 1025.16 1025.84
1012.89 1012.12 1011.91 1010.99 1011.14 1010.54 1009.71 1009.60 1009.29 1009.02 1009.29 1009.12 1009.07 1009.37 1009.19 1008.97 1008.90 1009.60 1010.66 1011.72 1012.61 1013.51 1014.52 1015.75 1016.66 1017.34 1017.96 1018.22 1019.02 1019.54 1020.17 1020.75 1021.14 1021.51 1022.20 1022.81 1023.47 1024.07 1024.39 1024.76 1024.74 1025.48 1025.68 1026.10
1013.73 1013.22 1012.93 1012.54 1011.84 1011.40 1010.78 1010.21 1009.66 1009.34 1009.58 1009.53 1009.26 1009.62 1009.14 1009.06 1009.73 1010.45 1011.59 1012.74 1013.88 1014.51 1015.30 1016.26 1017.05 1017.62 1018.36 1018.82 1019.29 1020.06 1020.75 1021.29 1021.98 1022.60 1022.74 1023.43 1023.97 1024.27 1024.73 1025.12 1025.33 1025.59 1025.83 1026.29
1014.86 1013.80 1013.62 1013.11 1012.59 1011.96 1011.58 1010.89 1009.97 1009.61 1010.00 1010.10 1009.94 1009.70 1009.44 1009.49 1010.41 1011.66 1012.45 1013.55 1014.23 1014.95 1015.95 1016.90 1017.60 1018.23 1018.81 1019.33 1020.04 1020.64 1021.16 1021.52 1022.24 1023.16 1023.09 1023.45 1023.86 1024.47 1025.17 1025.59 1025.49 1025.48 1025.66 1026.35
1015.40 1014.94 1014.64 1013.85 1013.19 1012.75 1012.04 1011.37 1010.60 1010.18 1009.90 1010.09 1009.84 1009.83 1010.14 1010.71 1011.44 1012.62 1013.63 1014.41 1015.06 1015.70 1016.53 1017.41 1018.16 1018.87 1019.25 1019.64 1020.31 1020.89 1021.42 1022.02 1022.72 1023.30 1023.38 1023.70 1023.99 1024.45 1025.08 1025.51 1025.62 1025.66 1026.06 1026.31
1016.50 1015.88 1015.23 1014.74 1013.98 1013.48 1012.73 1011.73 1011.25 1010.77 1010.36 1010.29 1010.21 1010.08 1010.40 1011.10 1011.93 1012.94 1013.87 1014.90 1015.52 1016.11 1016.95 1017.49 1018.06 1018.72 1019.50 1020.10 1020.64 1021.19 1021.91 1022.42 1022.86 1023.35 1023.62 1023.85 1024.23 1024.56 1025.14 1025.18 1025.45 1025.89 1026.08 1026.38
1017.72 1016.94 1016.10 1015.41 1014.76 1014.55 1013.53 1012.62 1011.70 1011.20 1010.89 1010.68 1010.50 1010.63 1010.78 1011.62 1012.35 1013.45 1014.21 1014.90 1015.60 1016.39 1017.12 1017.58 1018.13 1018.69 1019.41 1020.08 1020.71 1021.33 1021.93 1022.47 1022.90 1023.26 1023.70 1023.86 1024.35 1024.79 1025.22 1025.44 1025.69 1025.97 1026.13 1026.27
1019.46 1018.44 1017.32 1016.16 1015.28 1014.17 1013.61 1012.51 1011.80 1011.54 1011.32 1011.13 1011.12 1011.19 1011.26 1012.07 1012.76 1013.53 1014.18 1014.78 1015.56 1016.31 1016.86 1017.28 1017.79 1018.44 1019.33 1019.90 1020.43 1021.19 1021.72 1022.47 1022.82 1023.09 1023.60 1024.08 1024.51 1024.99 1025.38 1025.47 1025.62 1025.89 1025.97 1026.28
1020.62 1019.57 1018.44 1017.26 1015.96 1015.09 1013.61 1012.79 1012.16 1011.65 1011.45 1011.54 1011.65 1011.63 1011.71 1012.34 1013.14 1013.67 1014.32 1014.82 1015.62 1016.24 1016.74 1017.27 1017.80 1018.57 1019.35 1020.04 1020.68 1020.95 1021.79 1022.26 1022.77 1023.16 1023.55 1024.00 1024.45 1024.86 1025.23 1025.44 1025.57 1025.75 1026.00 1026.31
1021.24 1020.50 1019.32 1018.24 1017.02 1015.45 1014.05 1013.59 1013.02 1012.46 1012.58 1012.55 1012.62 1012.39 1012.73 1013.28 1013.64 1014.65 1014.92 1015.22 1015.70 1016.11 1016.57 1017.06 1017.71 1018.40 1019.16 1019.83 1020.33 1020.91 1021.61 1022.21 1022.72 1023.01 1023.42 1023.82 1024.14 1024.68 1025.06 1025.27 1025.37 1025.71 1025.85 1026.26
1021.55 1021.25 1020.72 1019.01 1017.92 1016.20 1015.30 1014.27 1013.64 1012.86 1013.46 1013.31 1013.25 1013.29 1013.89 1014.22 1015.02 1015.85 1015.98 1016.17 1016.38 1016.61 1016.95 1017.37 1017.91 1018.52 1019.17 1019.78 1020.27 1020.96 1021.56 1022.14 1022.44 1022.57 1022.99 1023.64 1024.28 1024.57 1024.80 1024.80 1025.04 1025.25 1025.65 1025.64
1021.52 1021.16 1020.63 1019.62 1018.58 1016.96 1015.73 1015.19 1014.32 1014.61 1015.41 1014.44 1014.30 1014.16 1014.83 1015.37 1016.40 1016.73 1017.22 1017.60 1017.83 1017.94 1018.14 1018.30 1018.52 1019.05 1019.51 1019.97 1020.46 1021.04 1021.54 1021.89 1022.09 1022.71 1023.16 1023.61 1023.83 1024.10 1024.13 1024.24 1024.59 1024.97 1025.11 1025.23
1020.46 1020.39 1020.27 1019.87 1018.97 1017.85 1016.70 1015.83 1016.03 1016.60 1015.85 1015.65 1015.29 1015.33 1016.02 1016.54 1017.31 1017.86 1018.43 1018.75 1018.81 1019.11 1019.33 1019.48 1019.82 1020.37 1020.63 1020.77 1021.11 1021.73 1022.10 1022.15 1022.32 1022.54 1023.08 1023.47 1023.58 1023.74 1023.92 1024.22 1024.42 1024.62 1024.95 1025.29
1020.22 1019.80 1019.55 1019.35 1018.75 1018.11 1017.82 1017.79 1017.60 1017.45 1017.00 1016.63 1016.35 1016.54 1016.91 1017.50 1018.28 1018.78 1019.48 1019.73 1019.80 1019.94 1020.27 1020.56 1020.62 1021.06 1021.40 1021.65 1021.76 1022.17 1022.19 1022.25 1022.55 1023.09 1023.44 1023.47 1023.49 1023.58 1023.73 1024.03 1024.39 1024.78 1024.84 1024.85
1020.34 1019.87 1019.87 1019.60 1019.14 1018.81 1018.66 1018.24 1018.45 1018.22 1017.97 1017.71 1017.38 1017.71 1018.04 1018.57 1019.25 1019.91 1020.07 1020.40 1020.70 1020.99 1021.13 1021.41 1021.88 1022.12 1022.36 1022.17 1022.31 1022.49 1022.43 1022.50 1022.84 1023.17 1023.25 1023.42 1023.75 1023.70 1023.72 1023.79 1023.94 1024.13 1024.16 1024.18
1021.03 1020.67 1020.54 1020.35 1019.76 1019.58 1019.45 1019.45 1019.37 1019.05 1018.69 1018.65 1018.88 1019.16 1019.63 1019.93 1020.55 1020.83 1021.12 1021.50 1021.95 1022.32 1022.61 1022.76 1023.01 1023.02 1023.08 1022.97 1022.99 1022.89 1022.88 1022.92 1023.44 1023.29 1023.36 1023.28 1023.33 1023.56 1023.51 1023.53 1023.40 1023.36 1023.03 1023.20
1022.01 1021.84 1021.70 1021.29 1021.02 1020.75 1020.89 1020.82 1020.55 1020.37 1020.45 1020.42 1020.39 1020.95 1021.38 1021.43 1021.84 1022.24 1022.81 1023.02 1023.26 1023.41 1023.49 1023.55 1023.59 1023.65 1023.71 1023.68 1023.60 1023.30 1023.06 1023.27 1023.64 1023.43 1023.24 1023.13 1023.20 1023.36 1023.36 1022.98 1022.66 1022.38 1022.10 1022.03
Wind_Speed
13 14 12 24 13 7 3 4 8 10 10 24 26 23 10 20 17 14 14 15 16 16 13 16 15 14 13 12 12 12 11 10 8 8 7 5 5 5 5 6 8 7 6 6
13 21 13 9 11 10 6 7 13 11 9 24 24 30 17 7 15 18 18 18 15 14 14 16 16 15 15 14 14 12 12 10 9 8 5 6 6 5 6 6 7 7 7 6
15 6 9 10 13 14 6 4 4 7 4 21 15 32 22 7 4 10 13 17 18 18 18 15 14 15 12 13 13 12 11 11 8 11 10 9 9 6 4 5 5 5 7 7
9 9 12 16 15 8 8 11 7 7 5 6 24 8 27 18 11 14 13 12 15 15 10 13 12 12 13 11 9 8 8 8 9 12 12 14 6 7 3 4 5 5 7 7
5 8 10 22 15 10 6 10 4 4 11 5 12 5 11 23 13 11 16 16 15 16 14 10 11 12 9 10 9 7 8 8 9 10 11 10 10 9 7 6 8 7 6 6
5 0 2 3 12 8 13 4 1 1 1 4 8 3 6 25 25 15 15 17 16 14 14 12 10 13 10 9 10 8 10 8 8 9 10 13 16 13 10 7 6 5 4 4
3 5 5 5 10 10 7 7 3 4 3 2 4 5 3 23 21 17 15 16 17 16 18 17 13 12 10 9 10 9 9 9 8 11 11 12 13 13 12 9 7 7 4 3
2 3 1 2 2 6 10 7 2 4 1 2 7 5 2 4 7 11 11 14 17 13 12 16 17 12 11 9 9 11 10 11 9 12 11 10 11 8 6 6 6 5 4 4
4 2 1 5 4 1 4 4 5 3 2 0 2 2 2 3 7 9 12 16 16 14 13 13 12 12 13 12 8 10 11 11 10 10 9 9 10 10 8 7 5 4 5 6
6 3 4 2 4 2 3 5 2 2 1 1 1 2 2 4 7 9 12 14 14 13 13 12 9 8 10 11 9 8 8 11 11 10 7 7 7 9 6 6 6 5 5 5
7 3 6 2 6 3 4 2 3 2 3 0 2 3 4 2 7 12 11 11 12 14 13 11 10 9 9 10 9 9 8 9 8 8 8 8 7 7 7 5 6 5 6 6
3 3 2 2 4 1 3 3 2 3 2 2 1 3 4 5 8 11 12 13 11 11 11 10 10 9 9 9 9 10 9 9 7 6 8 8 6 6 4 4 5 6 6 5
7 4 2 2 3 3 3 5 3 3 4 1 1 1 5 10 11 10 14 11 10 11 11 9 8 8 8 9 8 7 8 11 8 6 7 7 7 7 6 5 6 6 7 6
2 3 2 4 4 3 3 3 3 3 3 1 1 3 3 4 10 9 9 9 9 9 10 9 8 8 9 10 10 10 8 6 6 5 6 6 6 6 6 5 5 5 5 5
6 3 3 2 3 3 5 5 3 0 1 3 4 3 4 6 8 9 10 10 10 9 9 9 10 10 10 10 8 6 5 6 5 6 5 5 5 5 6 6 6 5 5 5
10 4 6 3 3 3 3 7 0 2 2 1 2 2 1 5 8 7 10 10 9 9 9 10 10 11 10 10 9 7 6 6 6 6 6 6 6 6 5 5 5 5 5 5
7 6 6 4 5 7 5 5 5 2 0 2 2 2 3 4 6 9 9 10 10 10 12 12 11 10 8 9 8 8 6 6 6 6 6 6 6 6 6 5 5 5 6 5
5 6 3 4 4 3 4 4 3 4 2 3 3 2 4 4 4 5 4 7 8 10 11 9 8 7 6 5 6 6 7 7 6 6 6 6 6 6 6 6 6 5 4 5
4 4 4 2 3 5 2 4 2 2 2 1 4 2 5 4 5 6 4 4 6 8 8 8 8 6 6 8 7 7 6 5 5 6 6 7 6 6 6 6 6 5 4 5
3 6 3 3 1 3 3 5 6 5 1 3 3 3 4 3 3 2 3 3 5 5 4 6 6 5 7 6 7 7 7 6 8 8 7 6 6 6 7 7 6 4 4 6
4 3 3 3 3 6 5 8 6 2 1 5 4 2 4 2 1 4 4 6 4 5 5 4 5 5 4 6 6 7 6 9 3 4 6 6 7 8 7 6 4 4 5 5
6 6 3 0 2 4 5 4 3 2 5 3 3 2 6 7 6 6 6 6 7 7 7 7 6 5 4 4 4 4 6 4 5 5 5 6 6 5 4 5 4 3 4 4
1 3 4 4 3 2 4 2 3 3 3 4 2 4 7 7 6 6 5 5 6 6 5 3 5 4 3 3 2 3 4 4 3 3 4 4 3 4 4 5 3 2 4 5
2 3 1 3 4 4 6 4 5 4 3 4 6 6 6 9 7 6 6 6 5 4 6 4 5 4 3 3 2 4 2 2 3 4 4 2 3 3 3 3 4 5 5 6
1 4 1 1 2 1 6 6 5 6 8 10 9 7 8 8 6 5 5 6 5 4 3 2 2 2 3 4 4 4 3 3 4 3 3 4 3 4 4 6 6 7 7 9
2 1 0 2 3 1 2 5 7 8 7 8 9 9 8 6 7 5 5 4 3 3 3 4 4 5 5 5 5 5 3 3 3 5 3 3 3 3 4 5 8 16 22 21
Wind_Direction
262 233 235 199 201 169 159 213 243 247 281 204 199 223 246 175 193 179 183 180 180 182 171 169 168 167 168 172 169 171 165 170 139 133 129 117 102 94 77 69 58 55 60 63
254 242 201 186 166 184 168 225 249 288 246 205 206 219 232 182 179 178 183 177 175 162 160 164 165 166 166 170 173 167 170 166 152 152 125 115 117 93 90 80 66 63 65 65
239 265 198 152 165 170 171 171 219 262 320 221 205 206 231 216 197 194 194 189 175 165 163 162 165 167 159 167 168 168 171 173 160 124 109 100 100 100 89 73 70 52 65 64
258 228 204 177 185 173 182 178 215 270 251 235 189 210 218 217 212 176 183 183 188 179 164 160 163 170 167 165 164 159 167 151 136 141 134 148 144 136 113 108 100 76 63 66
226 177 236 181 188 177 187 166 224 335 262 248 179 151 192 210 222 205 184 185 184 189 162 155 138 123 114 120 112 103 105 117 135 138 142 130 111 108 114 117 107 94 76 66
316 236 224 246 158 172 133 103 330 270 167 230 197 145 187 190 202 211 188 184 175 171 134 122 117 115 106 98 97 95 108 97 117 117 123 126 131 134 132 132 117 109 104 91
331 267 163 224 128 126 100 81 213 237 210 188 245 113 279 201 192 207 191 177 164 154 144 132 136 129 121 113 107 105 108 91 97 113 114 127 131 134 134 135 141 145 117 94
253 148 19 354 358 151 125 160 141 292 357 99 131 187 122 11 158 212 184 163 148 146 149 141 143 131 117 102 94 99 107 93 108 103 105 112 114 119 122 135 131 130 122 121
338 18 128 15 345 134 179 215 160 195 219 102 147 265 315 41 81 132 140 145 144 139 134 134 128 131 127 118 115 109 115 103 99 109 121 123 124 124 124 118 113 120 104 107
316 357 16 5 330 92 204 142 130 15 19 18 193 93 55 140 131 114 125 132 126 121 118 117 120 122 119 112 111 108 118 121 122 107 99 99 102 110 110 101 99 99 100 105
1 5 326 16 19 357 38 126 44 164 114 241 133 71 223 265 161 136 124 121 128 130 125 123 121 116 116 112 125 113 105 113 108 110 116 119 97 81 88 115 135 137 120 133
321 314 65 298 297 31 36 318 283 118 318 338 336 75 328 224 138 136 125 124 122 118 121 127 130 128 132 127 119 121 118 109 105 111 128 114 122 126 141 142 121 131 125 117
329 348 19 251 179 152 59 311 302 94 80 254 64 87 18 85 108 126 128 128 129 124 123 127 129 137 130 112 113 110 123 131 163 173 147 144 147 142 134 146 148 134 128 138
267 321 3 15 12 353 344 322 354 62 78 312 312 144 81 82 118 122 121 123 125 126 131 132 132 135 135 138 153 159 155 135 133 157 156 153 143 145 153 156 138 129 146 143
17 332 9 298 317 24 315 337 315 236 4 77 316 79 169 163 154 149 134 129 131 137 147 154 149 149 158 161 165 150 150 164 160 161 162 163 147 141 160 150 147 154 148 150
347 323 349 293 242 184 285 291 232 295 353 21 84 73 358 109 107 130 147 147 151 154 157 155 155 160 165 176 176 175 168 165 167 168 174 156 157 158 169 162 160 155 155 155
341 349 350 292 342 349 346 242 184 138 154 65 35 30 131 110 139 158 157 161 163 164 166 171 171 172 183 190 176 182 167 161 175 173 173 171 161 175 187 175 166 177 177 170
317 334 331 296 0 10 266 333 304 139 138 70 320 41 57 126 88 104 142 154 161 166 171 171 172 177 188 173 170 153 166 174 179 186 180 171 178 190 187 184 193 193 180 193
210 310 314 321 256 287 349 353 38 133 141 148 280 66 61 95 91 41 20 160 168 167 167 173 175 175 164 181 173 162 162 168 178 199 197 196 187 191 190 201 202 198 191 207
206 266 334 310 336 206 278 315 347 301 314 10 302 161 142 148 95 226 14 41 84 91 119 165 168 161 168 160 141 154 178 176 205 208 202 193 194 199 204 205 200 191 204 214
162 185 207 292 286 292 317 302 308 95 317 330 334 94 149 97 43 100 67 47 50 53 60 87 114 144 144 144 149 184 180 211 208 173 190 200 202 207 209 202 186 191 209 216
156 141 170 196 299 309 342 315 26 320 310 325 340 59 92 103 85 75 62 53 56 53 43 41 76 68 58 102 138 191 218 210 192 182 197 207 209 209 191 191 205 205 191 211
186 160 186 178 229 305 304 322 323 288 284 338 31 67 114 109 83 80 80 66 63 67 66 50 83 88 58 42 135 187 245 199 182 176 214 216 210 209 196 200 198 206 196 217
301 51 103 57 335 347 337 351 17 353 45 27 54 65 70 99 88 94 84 69 64 47 44 36 47 44 354 346 320 241 286 223 164 215 228 222 220 228 224 221 209 219 218 224
248 350 58 325 316 306 38 24 356 37 51 62 55 60 82 89 78 94 80 69 56 49 19 24 36 13 330 339 301 289 265 174 217 233 235 233 224 225 241 234 228 231 237 217
360 314 1 239 327 51 18 10 10 49 42 42 73 60 37 61 91 88 78 49 44 38 355 17 11 4 343 341 318 322 313 214 218 260 254 240 234 231 239 246 272 248 251 248